Content
SEND FEEDBACK

Daily
Averages
Monthly
Summary
United States of America

RICHLAND, WASHINGTON


Home > North America > United States > Washington
Elevation: 393 feet     Latitude: 46 18N     Longitude: 119 18W

WEATHER
 
SELECT A DAY
Number of Records: 173,900;   Date Range: 1/1/95 - 9/30/14
 
SHARE

PRINT THIS DATA

[ ← Previous Day ]
WEATHER ALMANAC - FEBRUARY 13, 2013
[ Next Day → ]
[ °C ]   °F
Weather ElementAverageHighLow
Temperature47.7 °F55 °F (2:53 pm)34 °F (11:53 pm)
Dewpoint35.4 °F39 °F (1:53 am)28 °F (11:53 pm)
Humidity63.1 %79 % (11:53 pm)51 % (2:53 pm)
Barometer30.30 in30.43 in (11:53 pm)30.22 in (2:53 am)
Wind Speed10.4 mph28.8 mph (2:53 am)
Wind Gust36.8 mph (2:53 am)
Weather ElementAverage
Visibility10 mi
Wind DirectionSSW (206.1 °)

Weather ElementTotal
Precipitation---
Heating Degree Days20.5 (Base 65)
Averaged from 23 records on February 13, 2013
WEATHER CONDITIONS BREAKOUT
WIND DIRECTION BREAKOUT
WEATHER BY HOUR - FEBRUARY 13, 2013
[ °C ]   °F
Local TimeTemperatureDewpointHumidityBarometerVisibilityWind DirectionWind SpeedGust SpeedPrecipitationEventsConditions
1:53 AM48.9 °F39.0 °F69 %30.25 in10.0 miWSW (240°)9.2 mphClear
2:53 AM48.9 °F37.9 °F66 %30.22 in10.0 miSW (230°)28.8 mph36.8 mphClear
3:53 AM48.9 °F37.9 °F66 %30.24 in10.0 miSW (230°)20.7 mphClear
4:53 AM48.9 °F37.9 °F66 %30.23 in10.0 miSW (230°)19.6 mph33.4 mphClear
5:53 AM48.9 °F37.9 °F66 %30.24 in10.0 miWSW (240°)17.3 mph28.8 mphClear
6:53 AM48.9 °F37.9 °F66 %30.25 in10.0 miWSW (240°)24.2 mph28.8 mphClear
7:53 AM48.0 °F37.9 °F68 %30.28 in10.0 miWSW (250°)11.5 mphClear
8:53 AM48.9 °F37.9 °F66 %30.29 in10.0 miWSW (250°)8.1 mphClear
9:53 AM50.0 °F37.9 °F63 %30.30 in10.0 miWSW (240°)11.5 mphClear
10:53 AM51.1 °F37.0 °F59 %30.30 in10.0 miSW (230°)13.8 mphClear
11:53 AM52.0 °F37.0 °F57 %30.30 in10.0 miSW (220°)8.1 mphMostly Cloudy
12:53 PM54.0 °F37.9 °F55 %30.28 in10.0 miWSW (240°)9.2 mphClear
1:53 PM54.0 °F37.0 °F53 %30.27 in10.0 miWSW (250°)11.5 mphPartly Cloudy
2:53 PM55.0 °F37.0 °F51 %30.28 in10.0 miWest (280°)8.1 mphClear
3:53 PM53.1 °F36.0 °F52 %30.30 in10.0 miNNW (340°)8.1 mphOvercast
4:53 PM52.0 °F37.0 °F57 %30.30 in10.0 miNorth (10°)3.5 mphOvercast
5:53 PM48.9 °F35.1 °F59 %30.31 in10.0 miCalmClear
6:53 PM45.0 °F32.0 °F60 %30.34 in10.0 miNW (320°)5.8 mphClear
7:53 PM41.0 °F28.9 °F62 %30.35 in10.0 miWSW (250°)8.1 mphClear
8:53 PM37.9 °F30.0 °F73 %30.37 in10.0 miNW (320°)6.9 mphClear
9:53 PM41.0 °F30.0 °F65 %30.39 in10.0 miCalmClear
10:53 PM37.9 °F30.0 °F73 %30.40 in10.0 miCalmClear
11:53 PM34.0 °F28.0 °F79 %30.43 in10.0 miSE (130°)5.8 mphClear
Hourly data recorded from KPSC, located miles away from Richland, Washington







STORIES FROM OUR PARTNERS